Location: Asis
(14.1331°N, 120.9056°E)
Time: 12:44:00
(UTC+00:00)

Spot 4 Rocket - Pass Details

Date: 15 January 2026
Orbit: 768 x 774 km, 98.8° (Epoch: 17 February)

Event Time Altitude Azimuth Distance (km) Brightness Sun altitude
Rises 10:47:47 0° 165° (SSE) 3,237 7.3 -14.6°
Reaches altitude 10° 10:50:05 10° 164° (SSE) 2,312 6.5 -15.2°
Maximum altitude 10:55:11 82° 78° (ENE) 783 3.9 -16.3°
Drops below altitude 10° 11:00:17 10° 350° (N) 2,315 6.4 -17.5°
Sets 11:02:35 0° 349° (N) 3,242 7.2 -18.0°
